QPF
0.00 0.00 0.00 0.00 0.00 0.00 0.00 0.00 0.00 0.00 0.00 0.00 0.00 0.00 0.00 0.00 0.00 0.00 0.00 0.00 0.00 0.00 0.00 0.00 0.00 0.00 0.00 0.00 0.00 0.00 0.00 0.00 0.00 0.00 0.00 0.00 0.00 0.00 0.00 0.00 0.00 0.00 0.00
0.00 0.00 0.00 0.00 0.00 0.00 0.00 0.00 0.00 0.00 0.00 0.00 0.00 0.00 0.00 0.00 0.00 0.00 0.00 0.00 0.00 0.00 0.00 0.00 0.00 0.00 0.00 0.00 0.00 0.00 0.00 0.00 0.00 0.00 0.00 0.00 0.00 0.00 0.00 0.00 0.00 0.00 0.00
0.00 0.00 0.00 0.00 0.00 0.00 0.00 0.00 0.00 0.00 0.00 0.00 0.00 0.00 0.00 0.00 0.00 0.00 0.00 0.00 0.00 0.00 0.00 0.00 0.00 0.00 0.00 0.00 0.00 0.00 0.00 0.00 0.00 0.00 0.00 0.00 0.00 0.00 0.00 0.00 0.00 0.00 0.00
0.00 0.00 0.00 0.00 0.00 0.00 0.00 0.00 0.00 0.00 0.00 0.00 0.00 0.00 0.00 0.00 0.00 0.00 0.00 0.00 0.00 0.00 0.00 0.00 0.00 0.00 0.00 0.00 0.00 0.00 0.00 0.00 0.00 0.00 0.00 0.00 0.00 0.00 0.00 0.00 0.00 0.00 0.00
0.00 0.00 0.00 0.00 0.00 0.00 0.00 0.00 0.00 0.00 0.00 0.00 0.00 0.00 0.00 0.00 0.00 0.00 0.00 0.00 0.00 0.00 0.00 0.00 0.00 0.00 0.00 0.00 0.00 0.00 0.00 0.00 0.00 0.00 0.00 0.00 0.00 0.00 0.00 0.00 0.00 0.00 0.00
0.00 0.00 0.00 0.00 0.00 0.00 0.00 0.00 0.00 0.00 0.00 0.00 0.00 0.00 0.00 0.00 0.00 0.00 0.00 0.00 0.00 0.00 0.00 0.00 0.00 0.00 0.00 0.00 0.00 0.00 0.00 0.00 0.00 0.00 0.00 0.00 0.00 0.00 0.00 0.00 0.00 0.00 0.00
0.00 0.00 0.00 0.00 0.00 0.00 0.00 0.00 0.00 0.00 0.00 0.00 0.00 0.00 0.00 0.00 0.00 0.00 0.00 0.00 0.00 0.00 0.00 0.00 0.00 0.00 0.00 0.00 0.00 0.00 0.00 0.00 0.00 0.00 0.00 0.00 0.00 0.00 0.00 0.00 0.00 0.00 0.00
0.00 0.00 0.00 0.00 0.00 0.00 0.00 0.00 0.00 0.00 0.00 0.00 0.00 0.00 0.00 0.00 0.00 0.00 0.00 0.00 0.00 0.00 0.00 0.00 0.00 0.00 0.00 0.00 0.00 0.00 0.00 0.00 0.00 0.00 0.00 0.00 0.00 0.00 0.00 0.00 0.00 0.00 0.00
0.00 0.00 0.00 0.00 0.00 0.00 0.00 0.00 0.00 0.00 0.00 0.00 0.00 0.00 0.00 0.00 0.00 0.00 0.00 0.00 0.00 0.00 0.00 0.00 0.00 0.00 0.00 0.00 0.00 0.00 0.00 0.00 0.00 0.00 0.00 0.00 0.00 0.00 0.00 0.00 0.00 0.00 0.00
0.00 0.00 0.00 0.00 0.00 0.00 0.00 0.00 0.00 0.00 0.00 0.00 0.00 0.00 0.00 0.00 0.00 0.00 0.00 0.00 0.00 0.00 0.00 0.00 0.00 0.00 0.00 0.00 0.00 0.00 0.00 0.00 0.00 0.00 0.00 0.00 0.00 0.00 0.00 0.00 0.00 0.00 0.00
0.00 0.00 0.00 0.00 0.00 0.00 0.00 0.00 0.00 0.00 0.00 0.00 0.00 0.00 0.00 0.00 0.00 0.00 0.00 0.00 0.00 0.00 0.00 0.00 0.00 0.00 0.00 0.00 0.00 0.00 0.00 0.00 0.00 0.00 0.00 0.00 0.00 0.00 0.00 0.00 0.00 0.00 0.00
0.00 0.00 0.00 0.00 0.00 0.00 0.00 0.00 0.00 0.00 0.00 0.00 0.00 0.00 0.00 0.00 0.00 0.00 0.00 0.00 0.00 0.00 0.00 0.00 0.00 0.00 0.00 0.00 0.00 0.00 0.00 0.00 0.00 0.00 0.00 0.00 0.00 0.00 0.00 0.00 0.00 0.00 0.00
0.00 0.00 0.00 0.00 0.00 0.00 0.00 0.00 0.00 0.00 0.00 0.00 0.00 0.00 0.00 0.00 0.00 0.00 0.00 0.00 0.00 0.00 0.00 0.00 0.00 0.00 0.00 0.00 0.00 0.00 0.00 0.00 0.00 0.00 0.00 0.00 0.00 0.00 0.00 0.00 0.00 0.00 0.00
0.00 0.00 0.00 0.00 0.00 0.00 0.00 0.00 0.00 0.00 0.00 0.00 0.00 0.00 0.00 0.00 0.00 0.00 0.00 0.00 0.00 0.00 0.00 0.00 0.00 0.00 0.00 0.00 0.00 0.00 0.00 0.00 0.00 0.00 0.00 0.00 0.00 0.00 0.00 0.00 0.00 0.00 0.00
0.00 0.00 0.00 0.00 0.00 0.00 0.00 0.00 0.00 0.00 0.00 0.00 0.00 0.00 0.00 0.00 0.00 0.00 0.00 0.00 0.00 0.00 0.00 0.00 0.00 0.00 0.00 0.00 0.00 0.00 0.00 0.00 0.00 0.00 0.00 0.00 0.00 0.00 0.00 0.00 0.00 0.00 0.00
0.00 0.00 0.00 0.00 0.00 0.00 0.00 0.00 0.00 0.00 0.00 0.00 0.00 0.00 0.00 0.00 0.00 0.00 0.00 0.00 0.00 0.00 0.00 0.00 0.00 0.00 0.00 0.00 0.00 0.00 0.00 0.00 0.00 0.00 0.00 0.00 0.00 0.00 0.00 0.00 0.00 0.00 0.00
0.00 0.00 0.00 0.00 0.00 0.00 0.00 0.00 0.00 0.00 0.00 0.00 0.00 0.00 0.00 0.00 0.00 0.00 0.00 0.00 0.00 0.00 0.00 0.00 0.00 0.00 0.00 0.00 0.00 0.00 0.00 0.00 0.00 0.00 0.00 0.00 0.00 0.00 0.00 0.00 0.00 0.00 0.00
0.00 0.00 0.00 0.00 0.00 0.00 0.00 0.00 0.00 0.00 0.00 0.00 0.00 0.00 0.00 0.00 0.00 0.00 0.00 0.00 0.00 0.00 0.00 0.00 0.00 0.00 0.00 0.00 0.00 0.00 0.00 0.00 0.00 0.00 0.00 0.00 0.00 0.00 0.00 0.00 0.00 0.00 0.00
0.00 0.00 0.00 0.00 0.00 0.00 0.00 0.00 0.00 0.00 0.00 0.00 0.00 0.00 0.00 0.00 0.00 0.00 0.00 0.00 0.00 0.00 0.00 0.00 0.00 0.00 0.00 0.00 0.00 0.00 0.00 0.00 0.00 0.00 0.00 0.00 0.00 0.00 0.00 0.00 0.00 0.00 0.00
0.00 0.00 0.00 0.00 0.00 0.00 0.00 0.00 0.00 0.00 0.00 0.00 0.00 0.00 0.00 0.00 0.00 0.00 0.00 0.00 0.00 0.00 0.00 0.00 0.00 0.00 0.00 0.00 0.00 0.00 0.00 0.00 0.00 0.00 0.00 0.00 0.00 0.00 0.00 0.00 0.00 0.00 0.00
0.00 0.00 0.00 0.00 0.00 0.00 0.00 0.00 0.00 0.00 0.00 0.00 0.00 0.00 0.00 0.00 0.00 0.00 0.00 0.00 0.00 0.00 0.00 0.00 0.00 0.00 0.00 0.00 0.00 0.00 0.00 0.00 0.00 0.00 0.00 0.00 0.00 0.00 0.00 0.00 0.00 0.00 0.00
0.00 0.00 0.00 0.00 0.00 0.00 0.00 0.00 0.00 0.00 0.00 0.00 0.00 0.00 0.00 0.00 0.00 0.00 0.00 0.00 0.00 0.00 0.00 0.00 0.00 0.00 0.00 0.00 0.00 0.00 0.00 0.00 0.00 0.00 0.00 0.00 0.00 0.00 0.00 0.00 0.00 0.00 0.00
0.00 0.00 0.00 0.00 0.00 0.00 0.00 0.00 0.00 0.00 0.00 0.00 0.00 0.00 0.00 0.00 0.00 0.00 0.00 0.00 0.00 0.00 0.00 0.00 0.00 0.00 0.00 0.00 0.00 0.00 0.00 0.00 0.00 0.00 0.00 0.00 0.00 0.00 0.00 0.00 0.00 0.00 0.00
0.00 0.00 0.00 0.00 0.00 0.00 0.00 0.01 0.00 0.00 0.00 0.00 0.00 0.00 0.00 0.00 0.00 0.00 0.00 0.00 0.00 0.00 0.00 0.00 0.00 0.00 0.00 0.00 0.00 0.00 0.00 0.00 0.00 0.00 0.00 0.00 0.00 0.00 0.00 0.00 0.00 0.00 0.00
0.00 0.00 0.00 0.00 0.01 0.01 0.00 0.00 0.00 0.00 0.00 0.00 0.00 0.00 0.00 0.00 0.00 0.00 0.00 0.00 0.00 0.00 0.00 0.00 0.00 0.00 0.00 0.00 0.00 0.00 0.00 0.00 0.00 0.00 0.00 0.00 0.00 0.00 0.00 0.00 0.00 0.00 0.00
0.00 0.00 0.00 0.00 0.00 0.00 0.00 0.00 0.00 0.00 0.00 0.00 0.00 0.00 0.00 0.00 0.00 0.00 0.00 0.00 0.00 0.00 0.00 0.00 0.00 0.00 0.00 0.00 0.00 0.00 0.00 0.00 0.00 0.00 0.00 0.00 0.00 0.00 0.00 0.00 0.00 0.00 0.00
MSLP
1016.86 1017.17 1017.42 1017.68 1017.88 1017.99 1018.13 1018.18 1018.28 1018.38 1018.53 1018.72 1018.88 1018.79 1018.68 1018.23 1017.96 1017.81 1017.72 1017.61 1017.57 1017.62 1017.74 1017.84 1017.75 1017.65 1017.74 1017.68 1017.78 1017.66 1017.26 1016.68 1016.18 1015.64 1014.81 1014.22 1013.84 1013.57 1013.60 1013.53 1013.38 1013.21 1013.01
1016.89 1017.24 1017.67 1017.77 1017.84 1017.90 1018.11 1018.28 1018.33 1018.40 1018.56 1018.83 1018.95 1018.91 1018.86 1018.47 1018.21 1017.94 1017.56 1017.40 1017.38 1017.43 1017.50 1017.61 1017.72 1017.72 1017.69 1017.63 1017.85 1017.88 1017.66 1017.28 1016.74 1016.70 1016.25 1015.63 1014.73 1014.31 1014.02 1014.03 1013.99 1014.06 1013.71
1016.64 1017.26 1017.63 1017.78 1017.85 1017.90 1018.03 1018.21 1018.24 1018.28 1018.30 1018.51 1018.64 1018.72 1018.72 1018.55 1018.40 1018.10 1017.81 1017.55 1017.30 1017.25 1017.25 1017.39 1017.56 1017.67 1017.59 1017.72 1017.95 1017.94 1017.93 1017.85 1017.28 1017.00 1016.70 1016.24 1016.11 1015.74 1014.81 1014.77 1014.52 1014.49 1014.38
1016.44 1016.94 1017.24 1017.60 1017.77 1017.67 1017.84 1017.94 1018.28 1018.38 1018.26 1018.43 1018.62 1018.83 1019.03 1019.14 1018.79 1018.51 1018.11 1017.71 1017.23 1017.03 1017.05 1017.18 1017.30 1017.47 1017.50 1017.61 1017.81 1017.76 1017.87 1017.79 1017.92 1017.32 1016.88 1016.76 1016.58 1016.34 1015.83 1015.24 1015.08 1014.91 1014.77
1015.95 1016.51 1016.85 1017.02 1017.29 1017.44 1017.70 1017.87 1018.14 1018.09 1018.27 1018.33 1018.46 1018.64 1018.76 1018.91 1018.63 1018.37 1018.07 1017.73 1017.35 1017.08 1016.91 1017.06 1017.23 1017.36 1017.40 1017.53 1017.67 1017.66 1017.76 1017.76 1017.89 1017.83 1017.55 1017.24 1016.94 1016.76 1016.82 1016.41 1015.89 1015.26 1015.00
1016.14 1016.51 1016.69 1016.94 1017.12 1017.41 1017.72 1017.87 1018.13 1017.99 1018.09 1018.17 1018.34 1018.47 1018.62 1018.67 1018.66 1018.45 1018.25 1017.82 1017.45 1017.12 1016.91 1016.92 1017.06 1017.08 1017.24 1017.33 1017.39 1017.45 1017.55 1017.62 1017.64 1017.72 1017.65 1017.61 1017.56 1017.40 1017.36 1017.28 1016.96 1016.63 1015.78
1016.23 1016.51 1016.81 1016.96 1017.21 1017.42 1017.54 1017.77 1017.96 1017.99 1018.02 1018.17 1018.22 1018.21 1018.31 1018.43 1018.52 1018.37 1018.17 1017.99 1017.67 1017.26 1016.96 1016.88 1016.97 1016.99 1016.94 1016.88 1017.02 1017.12 1017.24 1017.31 1017.37 1017.47 1017.45 1017.38 1017.36 1017.30 1017.34 1017.43 1017.36 1017.24 1016.47
1016.37 1016.47 1016.51 1016.70 1017.01 1017.16 1017.26 1017.62 1017.81 1017.93 1018.03 1018.14 1018.03 1018.02 1018.15 1018.23 1018.20 1018.11 1017.98 1017.81 1017.59 1017.28 1017.01 1016.84 1016.74 1016.72 1016.59 1016.59 1016.70 1016.84 1016.92 1016.93 1016.96 1017.02 1017.06 1017.04 1016.96 1016.95 1017.07 1017.24 1017.42 1017.51 1017.27
1015.90 1015.99 1016.00 1016.18 1016.43 1016.54 1016.66 1016.99 1017.34 1017.55 1017.67 1017.65 1017.74 1017.91 1017.97 1018.01 1018.01 1017.90 1017.76 1017.61 1017.44 1017.25 1017.02 1016.84 1016.84 1016.69 1016.47 1016.45 1016.56 1016.63 1016.67 1016.69 1016.73 1016.70 1016.77 1016.83 1016.61 1016.58 1016.63 1016.76 1017.00 1017.31 1017.67
1015.29 1015.45 1015.79 1015.84 1015.97 1015.94 1016.19 1016.64 1016.97 1017.19 1017.24 1017.33 1017.48 1017.62 1017.67 1017.61 1017.54 1017.54 1017.58 1017.55 1017.41 1017.27 1017.12 1016.94 1016.81 1016.63 1016.51 1016.49 1016.54 1016.54 1016.50 1016.53 1016.50 1016.47 1016.58 1016.60 1016.44 1016.37 1016.41 1016.52 1016.66 1016.89 1017.18
1015.43 1015.53 1015.62 1015.64 1015.63 1015.68 1016.07 1016.32 1016.71 1016.97 1017.13 1017.26 1017.36 1017.44 1017.42 1017.41 1017.45 1017.51 1017.48 1017.41 1017.24 1017.06 1016.97 1016.93 1016.87 1016.74 1016.64 1016.57 1016.61 1016.57 1016.49 1016.44 1016.34 1016.27 1016.38 1016.35 1016.23 1016.22 1016.26 1016.37 1016.51 1016.68 1016.92
1015.10 1015.13 1015.04 1015.06 1015.27 1015.55 1015.77 1015.91 1016.08 1016.31 1016.40 1016.45 1016.78 1016.95 1016.97 1017.09 1017.22 1017.21 1017.10 1017.04 1017.10 1017.09 1016.97 1016.67 1016.47 1016.32 1016.25 1016.29 1016.35 1016.35 1016.22 1016.20 1016.21 1016.16 1016.27 1016.21 1016.04 1016.11 1016.11 1016.21 1016.36 1016.38 1016.35
1014.96 1014.84 1014.85 1014.89 1014.90 1015.03 1015.16 1015.27 1015.47 1015.60 1015.70 1016.01 1016.39 1016.61 1016.75 1016.91 1016.97 1016.94 1016.93 1016.93 1016.83 1016.66 1016.47 1016.39 1016.33 1016.26 1016.22 1016.13 1016.02 1015.96 1015.91 1015.88 1015.92 1015.95 1015.99 1015.94 1015.91 1015.97 1015.94 1015.92 1016.03 1016.06 1016.02
1014.50 1014.38 1014.32 1014.08 1013.96 1014.17 1014.52 1014.68 1014.81 1014.98 1015.27 1015.65 1015.92 1016.14 1016.24 1016.27 1016.37 1016.43 1016.50 1016.54 1016.47 1016.44 1016.40 1016.33 1016.16 1015.92 1015.84 1015.78 1015.73 1015.72 1015.71 1015.70 1015.65 1015.59 1015.55 1015.51 1015.46 1015.47 1015.49 1015.55 1015.58 1015.53 1015.63
1014.01 1013.71 1013.63 1013.59 1013.53 1013.77 1013.97 1014.08 1014.21 1014.47 1014.79 1015.20 1015.44 1015.38 1015.44 1015.70 1015.91 1016.04 1016.05 1016.08 1016.15 1016.16 1016.09 1015.99 1015.86 1015.76 1015.66 1015.47 1015.40 1015.34 1015.39 1015.41 1015.35 1015.30 1015.28 1015.16 1015.02 1014.91 1014.83 1014.87 1014.96 1015.15 1015.25
1013.98 1013.51 1013.23 1013.07 1012.99 1013.02 1013.28 1013.52 1013.69 1013.86 1014.26 1014.55 1014.61 1014.73 1015.09 1015.31 1015.42 1015.46 1015.53 1015.68 1015.80 1015.87 1015.88 1015.77 1015.57 1015.41 1015.24 1015.08 1014.98 1014.95 1015.07 1015.07 1015.12 1015.10 1014.92 1014.79 1014.62 1014.48 1014.43 1014.37 1014.32 1014.44 1014.59
1013.96 1013.46 1013.05 1012.77 1012.63 1012.71 1012.85 1013.21 1013.22 1013.45 1013.85 1014.08 1014.20 1014.49 1014.74 1014.90 1014.97 1015.03 1015.18 1015.24 1015.30 1015.33 1015.39 1015.38 1015.37 1015.20 1014.92 1014.74 1014.66 1014.67 1014.67 1014.75 1014.74 1014.77 1014.82 1014.55 1014.20 1014.05 1013.95 1013.93 1013.93 1013.90 1013.91
1014.14 1013.62 1013.12 1012.65 1012.40 1012.29 1012.35 1012.55 1012.93 1013.27 1013.69 1013.93 1013.91 1013.98 1014.20 1014.29 1014.37 1014.56 1014.62 1014.66 1014.78 1014.99 1014.96 1014.82 1014.78 1014.83 1014.61 1014.46 1014.31 1014.27 1014.24 1014.28 1014.18 1014.21 1014.15 1014.12 1013.76 1013.61 1013.60 1013.51 1013.53 1013.41 1013.35
1014.28 1013.67 1013.25 1013.09 1012.84 1012.80 1012.88 1013.03 1013.30 1013.63 1013.86 1013.82 1013.79 1013.62 1013.77 1013.90 1013.91 1014.02 1014.06 1014.21 1014.44 1014.49 1014.49 1014.38 1014.42 1014.60 1014.19 1014.00 1013.98 1013.95 1013.91 1013.85 1013.64 1013.47 1013.37 1013.31 1013.17 1012.86 1012.81 1012.86 1012.88 1012.77 1012.61
1014.99 1014.50 1013.91 1013.51 1013.54 1013.73 1013.63 1013.70 1013.83 1013.93 1013.94 1013.79 1013.49 1013.28 1013.15 1013.35 1013.38 1013.46 1013.62 1013.70 1013.86 1014.00 1014.01 1014.02 1013.99 1013.88 1013.75 1013.40 1013.33 1013.33 1013.47 1013.55 1013.36 1013.10 1012.92 1012.89 1012.75 1012.61 1012.41 1012.34 1012.42 1012.34 1011.94
1016.86 1016.16 1015.30 1015.06 1014.84 1014.20 1013.96 1014.09 1014.23 1014.16 1014.17 1013.88 1013.70 1013.46 1013.13 1012.97 1013.04 1013.30 1013.39 1013.34 1013.45 1013.47 1013.52 1013.43 1013.20 1013.15 1012.96 1012.67 1012.56 1012.50 1012.55 1012.66 1012.56 1012.47 1012.31 1012.10 1011.93 1011.79 1011.70 1011.65 1011.80 1011.76 1011.68
1017.28 1017.14 1016.83 1016.62 1016.47 1016.11 1015.36 1015.14 1014.94 1014.79 1014.14 1013.96 1013.81 1013.74 1013.76 1013.12 1012.63 1012.88 1013.01 1013.04 1013.06 1013.08 1013.06 1012.99 1012.76 1012.43 1012.15 1012.04 1011.94 1011.71 1011.63 1011.59 1011.70 1011.65 1011.50 1011.36 1011.35 1011.26 1011.25 1011.23 1011.01 1010.87 1010.90
1018.36 1017.99 1017.67 1017.21 1016.99 1016.79 1016.55 1015.93 1015.59 1015.26 1014.86 1014.35 1014.08 1013.91 1013.63 1013.36 1013.09 1013.13 1012.80 1012.78 1012.56 1012.47 1012.35 1012.44 1012.14 1011.90 1011.59 1011.42 1011.23 1011.15 1010.95 1010.81 1010.70 1010.68 1010.68 1010.71 1010.72 1010.67 1010.59 1010.65 1010.60 1010.58 1010.55
1018.71 1018.42 1017.92 1017.47 1017.02 1016.59 1016.35 1016.25 1015.85 1015.36 1014.92 1014.51 1014.16 1013.82 1013.41 1012.96 1012.75 1012.72 1012.58 1012.28 1011.99 1011.96 1011.75 1011.75 1011.78 1011.29 1011.09 1011.12 1010.77 1010.58 1010.40 1010.29 1010.34 1010.22 1010.12 1010.11 1010.08 1010.02 1009.96 1009.88 1009.89 1009.98 1010.08
1018.92 1018.59 1018.15 1017.73 1017.17 1016.69 1016.22 1015.63 1015.07 1014.51 1014.27 1013.99 1013.60 1013.26 1012.89 1012.55 1012.38 1012.28 1012.10 1011.95 1011.62 1011.44 1011.35 1011.19 1011.11 1010.99 1010.60 1010.17 1009.88 1009.99 1009.97 1009.82 1009.79 1009.76 1009.80 1009.79 1009.71 1009.56 1009.63 1009.69 1009.55 1009.55 1009.52
1018.60 1018.21 1017.74 1017.32 1016.74 1016.16 1015.69 1015.31 1014.89 1014.39 1013.99 1013.81 1013.33 1012.99 1012.72 1012.28 1012.10 1012.01 1011.55 1011.24 1011.07 1010.73 1010.64 1010.47 1010.26 1009.96 1009.43 1009.13 1009.03 1008.93 1008.81 1008.70 1008.69 1008.75 1009.00 1008.96 1008.88 1008.78 1008.77 1008.86 1008.86 1009.08 1009.05
Thickness
5678 5673 5666 5661 5657 5653 5648 5644 5639 5633 5626 5619 5615 5613 5613 5615 5616 5614 5612 5610 5608 5605 5602 5599 5597 5594 5589 5584 5579 5576 5577 5578 5576 5575 5579 5580 5580 5580 5577 5577 5578 5582 5587
5669 5664 5658 5652 5649 5647 5642 5636 5631 5624 5615 5607 5604 5603 5602 5605 5606 5605 5605 5604 5602 5599 5596 5594 5591 5587 5583 5580 5574 5570 5570 5569 5569 5565 5564 5567 5574 5576 5576 5575 5576 5577 5581
5664 5656 5649 5646 5642 5639 5634 5629 5624 5617 5610 5604 5600 5598 5598 5598 5597 5597 5597 5597 5596 5593 5592 5589 5584 5580 5577 5574 5568 5565 5564 5561 5562 5561 5561 5563 5561 5561 5571 5570 5573 5574 5576
5658 5651 5645 5639 5635 5633 5628 5622 5615 5609 5605 5599 5595 5592 5588 5586 5587 5586 5587 5589 5590 5588 5586 5583 5578 5575 5573 5570 5565 5563 5559 5558 5554 5556 5558 5557 5558 5557 5559 5568 5568 5570 5573
5652 5647 5640 5637 5631 5626 5620 5614 5609 5606 5601 5596 5592 5588 5586 5581 5581 5580 5581 5582 5583 5582 5581 5577 5573 5571 5569 5566 5562 5559 5556 5554 5551 5550 5550 5550 5551 5553 5553 5555 5560 5567 5569
5643 5638 5634 5629 5624 5617 5611 5607 5602 5600 5596 5592 5588 5584 5581 5577 5574 5574 5573 5575 5575 5575 5574 5572 5569 5567 5565 5563 5560 5557 5554 5552 5549 5548 5547 5546 5545 5545 5544 5545 5547 5551 5561
5632 5629 5625 5620 5616 5610 5606 5601 5597 5593 5590 5585 5582 5580 5577 5573 5571 5569 5568 5567 5567 5567 5567 5567 5564 5563 5562 5560 5558 5555 5553 5551 5548 5546 5546 5545 5544 5543 5542 5541 5541 5541 5549
5621 5620 5619 5614 5609 5605 5601 5595 5590 5586 5583 5579 5577 5574 5571 5567 5565 5564 5562 5562 5561 5561 5562 5562 5560 5559 5558 5557 5555 5553 5551 5550 5547 5546 5544 5544 5543 5543 5541 5540 5537 5535 5536
5619 5617 5615 5610 5605 5603 5598 5591 5585 5581 5578 5575 5572 5568 5565 5563 5560 5558 5557 5555 5555 5556 5555 5554 5553 5552 5553 5552 5551 5548 5547 5546 5544 5543 5542 5540 5541 5541 5540 5538 5535 5533 5529
5618 5614 5609 5606 5601 5599 5593 5585 5580 5576 5572 5569 5565 5563 5560 5558 5556 5553 5551 5549 5548 5547 5546 5545 5545 5544 5545 5545 5543 5542 5541 5540 5539 5538 5536 5535 5536 5535 5534 5532 5530 5528 5525
5608 5605 5602 5599 5596 5592 5585 5580 5573 5569 5565 5561 5558 5554 5553 5551 5548 5545 5543 5542 5541 5541 5540 5538 5536 5536 5535 5534 5532 5531 5531 5531 5531 5531 5529 5529 5529 5528 5527 5525 5523 5521 5518
5601 5598 5596 5593 5588 5583 5579 5574 5570 5565 5563 5559 5553 5550 5546 5543 5539 5537 5536 5535 5533 5531 5530 5531 5531 5531 5530 5529 5527 5526 5526 5524 5523 5522 5519 5519 5520 5518 5517 5515 5513 5512 5511
5592 5591 5587 5583 5580 5577 5574 5570 5565 5560 5557 5551 5545 5541 5536 5532 5530 5528 5526 5525 5523 5522 5522 5521 5520 5520 5518 5517 5516 5516 5515 5514 5512 5510 5509 5508 5507 5505 5504 5503 5501 5501 5500
5586 5584 5582 5581 5578 5575 5569 5564 5559 5554 5548 5542 5537 5532 5529 5526 5522 5519 5516 5514 5512 5510 5509 5508 5507 5507 5505 5504 5503 5502 5500 5498 5497 5497 5496 5496 5495 5494 5493 5491 5490 5489 5487
5577 5576 5576 5573 5568 5563 5560 5556 5551 5545 5538 5532 5527 5524 5521 5516 5512 5508 5506 5503 5500 5498 5496 5494 5493 5492 5491 5491 5489 5487 5485 5483 5482 5481 5480 5481 5481 5481 5480 5479 5476 5474 5472
5566 5565 5565 5563 5560 5555 5549 5544 5540 5534 5528 5522 5518 5514 5508 5503 5499 5496 5492 5488 5484 5481 5479 5477 5477 5475 5474 5474 5474 5473 5469 5467 5465 5464 5464 5464 5464 5463 5464 5464 5463 5460 5456
5547 5548 5548 5548 5545 5541 5537 5531 5526 5520 5513 5507 5503 5497 5492 5487 5484 5482 5477 5473 5470 5467 5464 5461 5459 5457 5456 5456 5456 5454 5452 5449 5447 5445 5443 5444 5445 5445 5444 5444 5443 5441 5440
5529 5531 5531 5531 5529 5526 5522 5517 5510 5503 5497 5491 5487 5481 5476 5473 5469 5464 5460 5456 5452 5448 5446 5444 5442 5440 5437 5436 5437 5436 5434 5431 5429 5427 5426 5424 5423 5421 5422 5423 5421 5420 5419
5514 5513 5511 5509 5508 5504 5500 5496 5490 5482 5476 5473 5468 5464 5460 5455 5450 5445 5442 5438 5435 5432 5428 5427 5423 5419 5419 5417 5416 5415 5413 5412 5410 5410 5409 5407 5405 5404 5405 5405 5402 5401 5401
5490 5488 5488 5488 5484 5478 5475 5471 5466 5460 5456 5454 5452 5449 5445 5439 5435 5430 5425 5421 5417 5414 5410 5407 5403 5401 5400 5396 5396 5395 5392 5391 5389 5389 5389 5386 5386 5385 5385 5382 5380 5381 5382
5447 5451 5456 5454 5452 5454 5452 5447 5441 5438 5434 5432 5429 5427 5424 5421 5416 5410 5406 5403 5399 5396 5392 5390 5387 5384 5382 5380 5377 5376 5375 5373 5373 5371 5371 5369 5367 5368 5368 5364 5360 5359 5359
5425 5421 5418 5415 5413 5413 5416 5413 5410 5407 5409 5406 5404 5400 5395 5397 5396 5390 5385 5381 5377 5373 5371 5368 5369 5368 5365 5363 5361 5360 5359 5357 5356 5356 5356 5354 5351 5350 5349 5346 5344 5342 5340
5396 5394 5392 5390 5386 5382 5380 5380 5379 5379 5379 5380 5378 5375 5373 5370 5368 5364 5363 5360 5358 5356 5356 5351 5353 5353 5350 5347 5345 5343 5343 5343 5341 5340 5341 5341 5339 5336 5334 5329 5326 5321 5318
5371 5367 5365 5364 5363 5361 5357 5352 5352 5352 5352 5352 5351 5349 5346 5348 5346 5342 5341 5342 5342 5337 5338 5337 5334 5337 5336 5331 5328 5327 5326 5326 5322 5322 5323 5322 5320 5318 5314 5310 5304 5296 5291
5345 5342 5339 5337 5337 5337 5335 5333 5332 5332 5331 5330 5329 5328 5327 5327 5327 5325 5323 5322 5325 5321 5320 5320 5318 5318 5321 5319 5318 5314 5312 5309 5306 5303 5303 5301 5297 5293 5289 5283 5279 5274 5267
5325 5323 5322 5319 5319 5317 5316 5313 5308 5308 5308 5309 5309 5306 5306 5306 5305 5304 5307 5307 5308 5309 5308 5309 5307 5307 5308 5309 5306 5304 5301 5299 5293 5287 5285 5286 5283 5279 5273 5265 5258 5250 5246